Regional Weather Roundup
Issued by NWS

Home | Current Version | Previous Version | Text Only | Print | Product List | Glossary On
Versions: 1 2 3 4 5 6 7 8 9 10 11 12 13 14 15 16 17 18 19 20 21 22 23 24 25 26 27 28
000
ASUS45 KPSR 012310
RWRAZ

ARIZONA HOURLY REGIONAL WEATHER ROUNDUP
NATIONAL WEATHER SERVICE PHOENIX AZ
400 PM MST FRI DEC 01 2023

NOTE: FAIR INDICATES FEW OR NO CLOUDS BELOW 12,000 FEET WITH NO
SIGNIFICANT WEATHER AND/OR OBSTRUCTIONS TO VISIBILITY.

AZZ001>003-036-020000-
NORTHWEST ARIZONA

CITY           SKY/WX    TMP DP  RH WIND       PRES   REMARKS
BULLHEAD CITY  SUNNY     64  32  29 S6        29.93S TC  18
KINGMAN        SUNNY     53  31  42 W13       29.95R TC  12
$$

AZZ004>008-015-016-018-020000-
NORTH CENTRAL ARIZONA

CITY           SKY/WX    TMP DP  RH WIND       PRES   REMARKS
GRAND CANYON   PTSUNNY   36  23  59 W12G22    29.92S WCI  28 TC   2
WILLIAMS       FLURRIES  34  28  80 NW13      29.95R WCI  25 TC   1
PRESCOTT       LGT RAIN  40  33  76 SW8       29.94S WCI  34 TC   4
FLAGSTAFF      LGT SNOW  32  27  81 SW7G18    29.92F WCI  26 TC   0
PAYSON         MOSUNNY   43  32  65 SW6       29.96R TC   6
PAGE           CLOUDY    49  25  39 W9G18     29.85R TC   9
$$

AZZ009>014-017-020000-
NORTHEAST ARIZONA

CITY           SKY/WX    TMP DP  RH WIND       PRES   REMARKS
WINSLOW        PTSUNNY   48  25  40 W16       29.90S TC   9
WINDOW ROCK    MOSUNNY   34  25  69 SW13      29.89R WCI  25 TC   1
SHOW LOW       MOSUNNY   41  23  48 SW17      29.94R TC   5
$$

AZZ540-542>544-546-548-020000-
GREATER PHOENIX AREA

CITY           SKY/WX    TMP DP  RH WIND       PRES   REMARKS
PHOENIX        MOSUNNY   63  41  44 W10       29.92S TC  17
BUCKEYE        SUNNY     63  45  51 CALM      29.94F TC  17
GLENDALE       MOSUNNY   63  43  48 SW7       29.91S TC  17
LUKE AFB       SUNNY     63  45  51 S7        29.91F TC  17
DEER VALLEY    SUNNY     61  42  49 W10       29.93F TC  16
SCOTTSDALE     SUNNY     62  41  46 SW7       29.94S TC  17
MESA-FALCON    SUNNY     62  42  47 W7        29.93S TC  17
MESA-GATEWAY   MOSUNNY   61  43  51 W8        29.95S TC  16
CHANDLER       MOSUNNY   63  43  48 NW8       29.94S TC  17
$$

AZZ539-553-020000-
SOUTHWEST MARICOPA COUNTY AND PINAL COUNTY

CITY           SKY/WX    TMP DP  RH WIND       PRES   REMARKS
CASA GRANDE    NOT AVBL
GILA BEND      MOSUNNY   64  47  55 CALM      29.95R TC  18
$$

AZZ503-504-507>509-020000-
SOUTHEAST ARIZONA

CITY           SKY/WX    TMP DP  RH WIND       PRES   REMARKS
TUCSON         CLOUDY    53  46  77 S10       29.99R TC  12
DAVIS-MONTHAN  CLOUDY    52  43  72 SE8       29.96R TC  11
NOGALES        CLOUDY    48  43  82 N6        29.98S TC   9
SIERRA VISTA   LGT RAIN  45  41  87 NW10      30.00  TC   7
DOUGLAS        CLOUDY    54  35  48 NW15      29.95R TC  12
SAFFORD        CLOUDY    51  40  65 W6        29.94R TC  11
$$

AZZ532-020000-
SOUTHWEST ARIZONA

CITY           SKY/WX    TMP DP  RH WIND       PRES   REMARKS
YUMA           MOSUNNY   68  37  32 W7        29.95R TC  20
$$

CAZ041-043-047-048-061-525>527-560>570-020000-
SOUTHERN CALIFORNIA

CITY           SKY/WX    TMP DP  RH WIND       PRES   REMARKS
DOWNTOWN L.A.  SUNNY     66  45  46 MISG      30.00R TC  19
L.A. AIRPORT   MOSUNNY   63  46  54 W13       30.01R TC  17
SAN DIEGO      MOSUNNY   64  46  52 NW7       30.03R TC  18
BURBANK        SUNNY     65  29  25 NW14G22   29.99R TC  18
ONTARIO        MOSUNNY   64  41  42 SW8       29.99S TC  18
RIVERSIDE      SUNNY     65  40  39 W7        29.99R TC  18
PALM SPRINGS   SUNNY     69  37  30 S3        29.96S TC  21
EL CENTRO NAS  MOSUNNY   71  40  32 N5        29.96S TC  22
IMPERIAL       SUNNY     69  40  34 N7        29.94R TC  21
BLYTHE         SUNNY     69  32  25 CALM      29.94S TC  21
NEEDLES        SUNNY     65  38  36 E6        29.94S TC  18
$$

NVZ020-UTZ003-020000-
SOUTHERN NEVADA-UTAH

CITY           SKY/WX    TMP DP  RH WIND       PRES   REMARKS
LAS VEGAS      MOSUNNY   61  25  25 W7        29.94R TC  16
SALT LAKE CITY MOCLDY    37  29  72 W7        29.89R WCI  32 TC   3
$$

NMZ009-TXZ055-020000-
NEW MEXICO-WEST TEXAS

CITY           SKY/WX    TMP DP  RH WIND       PRES   REMARKS
ALBUQUERQUE    PTCLDY    45  30  55 NW8       29.88R TC   7
EL PASO        MOSUNNY   60  28  29 W12       29.89S TC  16
$$


........................KEY........................
SKY/WX - SKY CONDITION/WEATHER
TMP    - TEMPERATURE IN FAHRENHEIT
DP     - DEW POINT IN FAHRENHEIT
RH     - RELATIVE HUMIDITY IN PERCENT
WIND   - DIRECTION AND SPEED IN MILES PER HOUR (MPH)
VRB    - VARIABLE WIND DIRECTION
PRES   - MEAN SEA LEVEL PRESSURE IN INCHES OF MERCURY
         F - FALLING PRESSURE   R - RISING PRESSURE
         S - STEADY PRESSURE
VSB    - VISIBILITY IN MILES
HX     - HEAT INDEX IN FAHRENHEIT
WCI    - WIND CHILL INDEX IN FAHRENHEIT
TC     - TEMPERATURE IN CELSIUS WHICH IS ALSO KNOWN AS
         TEMPERATURE IN CENTIGRADE
AFB    - AIR FORCE BASE
         LUKE AFB IS LUKE AIR FORCE BASE
         DAVIS-MONTHAN IS DAVIS-MONTHAN AIR FORCE BASE
NAS    - NAVAL AIR STATION
         EL CENTRO NAS IS EL CENTRO NAVAL AIR STATION
N/A    - NOT AVAILABLE




USA.gov is the U.S. government's official web portal to all federal, state and local government web resources and services.